User: anonymous   Login
Location: Lawrence Hall of Science
(37.8785°N, 122.2415°W)
Time: 12:59:38
(UTC-07:00)
Language:

ARGOS - Orbit

View from above orbital plane
View from above orbital plane
View from above satellite
View from above satellite

Ground track
Ground track

The orbit data is extracted from the following two-line orbital elements,

1 25634U 99008A   17262.80279301 -.00000015 +00000-0 +13051-4 0  9995
2 25634 098.6097 323.0079 0009148 297.9394 062.0856 14.19318055961415
Epoch (UTC): 19 September 2017 19:16:01
Eccentricity: 0.0009148
inclination: 98.6097°
perigee height: 821 km
apogee height: 834 km
right ascension of ascending node: 323.0079°
argument of perigee: 297.9394°
revolutions per day: 14.19318055
mean anomaly at epoch: 62.0856°
orbit number at epoch: 96141

The dashed part of the orbit path shows where the satellite is in the earth's shadow,  

DLR